Location: Newark
(49.2191°N, 12.6671°E)
Time: 15:35:44
(UTC+00:00)

Transit 4A - Pass Details

Date: 30 January 2020
Orbit: 872 x 973 km, 66.8° (Epoch: 23 February)

Event Time Altitude Azimuth Distance (km) Brightness Sun altitude
Rises 03:20:03 0° 168° (SSE) 3,540 11.0 -33.3°
Reaches altitude 10° 03:23:13 10° 152° (SSE) 2,584 10.4 -32.7°
Maximum altitude 03:27:26 20° 107° (ESE) 1,932 10.1 -32.1°
Drops below altitude 10° 03:31:37 10° 61° (ENE) 2,555 11.0 -31.4°
Sets 03:34:42 0° 46° (NE) 3,487 11.6 -30.9°
